Change the Weather History Date:

Monday, March 18, 2013

  Actual Average (KPWC) Record (KPWC)
Temperature  
Mean Temperature 16 °F -  
Max Temperature 26 °F 37 °F 73 °F (2012)
Min Temperature 6 °F 16 °F 8 °F (2006)
Degree Days  
Heating Degree Days 49    
Moisture  
Dew Point 15 °F    
Average Humidity 86    
Maximum Humidity 100    
Minimum Humidity 73    
Precipitation  
Precipitation 0.05 in - - ()
Sea Level Pressure  
Sea Level Pressure 29.56 in    
Wind  
Wind Speed 12 mph (SSW)    
Max Wind Speed 20 mph    
Max Gust Speed 31 mph    
Visibility 5 miles    
Events Snow    
Averages and records for this station are not official NWS values.
T = Trace of Precipitation, MM = Missing Value Source: NWS Daily Summary

Daily Weather History Graph

Daily Weather History Graph

Search for Another Location

Airport or City:

Trip Planner

Search our weather history database for the weather conditions in past years. The results will help you decide how hot, cold, wet, or windy it might be!

Date:

Astronomy

Mar. 18, 2013 Rise Set
Actual Time 7:23 AM CDT 7:27 PM CDT
Civil Twilight 6:52 AM CDT 7:57 PM CDT
Nautical Twilight 6:17 AM CDT 8:33 PM CDT
Astronomical Twilight 5:40 AM CDT 9:09 PM CDT
Moon 11:01 AM CDT (3/18) 1:48 AM CDT (3/18)
Length of Visible Light 13h 04m
Length of Day
12h 03m
Waxing Crescent, 41% of the Moon is Illuminated
Mar 18
Waxing Crescent
Mar 19
First Quarter
Mar 27
Full
Apr 2
Last Quarter
Apr 10
New

Hourly Weather History & Observations

Time (CDT) Temp. Windchill Dew Point Humidity Pressure Visibility Wind Dir Wind Speed Gust Speed Precip Events Conditions
12:16 AM 17.6 °F 5.7 °F 15.8 °F 93% 29.74 in 1.5 mi ESE 10.4 mph 17.3 mph 0.01 in Snow Light Snow
12:36 AM 17.6 °F 5.7 °F 15.8 °F 93% 29.70 in 0.8 mi ESE 10.4 mph 18.4 mph 0.01 in Snow Snow
12:56 AM 19.4 °F 8.6 °F 15.8 °F 86% 29.70 in 0.8 mi SE 9.2 mph 16.1 mph N/A Snow Snow
1:16 AM 19.4 °F 7.9 °F 17.6 °F 93% 29.68 in 0.8 mi SE 10.4 mph 17.3 mph N/A Snow Snow
1:36 AM 19.4 °F 8.6 °F 17.6 °F 93% 29.69 in 0.5 mi SE 9.2 mph 19.6 mph N/A Snow Snow
1:56 AM 19.4 °F 7.9 °F 17.6 °F 93% 29.69 in 1.0 mi SE 10.4 mph - N/A Snow Snow
2:16 AM 19.4 °F 8.6 °F 17.6 °F 93% 29.69 in 1.2 mi SE 9.2 mph - N/A Snow Light Snow
2:36 AM 19.4 °F 8.6 °F 17.6 °F 93% 29.67 in 1.2 mi SE 9.2 mph - N/A Snow Light Snow
2:56 AM 19.4 °F 9.5 °F 17.6 °F 93% 29.65 in 1.0 mi SE 8.1 mph - N/A Snow Snow
3:16 AM 19.4 °F 7.9 °F 17.6 °F 93% 29.64 in 1.0 mi SE 10.4 mph 16.1 mph N/A Snow Snow
3:36 AM 21.2 °F 7.8 °F 17.6 °F 86% 29.62 in 1.5 mi SE 15.0 mph 18.4 mph N/A Snow Light Snow
3:56 AM 21.2 °F 9.5 °F 17.6 °F 86% 29.61 in 1.2 mi SE 11.5 mph 16.1 mph N/A Snow Snow
4:16 AM 21.2 °F 8.9 °F 19.4 °F 93% 29.59 in 1.2 mi SE 12.7 mph 20.7 mph 0.01 in Snow Light Snow
4:36 AM 21.2 °F 8.3 °F 19.4 °F 93% 29.58 in 0.8 mi SE 13.8 mph 24.2 mph 0.02 in Snow Snow
4:56 AM 21.2 °F 8.9 °F 19.4 °F 93% 29.57 in 0.8 mi SE 12.7 mph 21.9 mph N/A Snow Snow
5:16 AM 21.2 °F 8.9 °F 19.4 °F 93% 29.55 in 1.2 mi SE 12.7 mph 16.1 mph 0.01 in Snow Light Snow
5:36 AM 21.2 °F 7.3 °F 19.4 °F 93% 29.54 in 2.0 mi SE 16.1 mph 21.9 mph 0.01 in Snow Light Snow
5:56 AM 21.2 °F 9.5 °F 19.4 °F 93% 29.53 in 1.5 mi SE 11.5 mph 20.7 mph N/A Snow Light Snow
6:16 AM 21.2 °F 11.7 °F 19.4 °F 93% 29.52 in 7.0 mi SE 8.1 mph - 0.01 in Snow Light Snow
6:36 AM 21.2 °F 9.5 °F 19.4 °F 93% 29.51 in 10.0 mi SE 11.5 mph 18.4 mph 0.01 in   Overcast
6:56 AM 21.2 °F 10.9 °F 19.4 °F 93% 29.49 in 10.0 mi SE 9.2 mph 17.3 mph N/A   Overcast
7:16 AM 21.2 °F 8.9 °F 19.4 °F 93% 29.48 in 7.0 mi SE 12.7 mph 18.4 mph 0.01 in Snow Light Snow
7:36 AM 23.0 °F 11.7 °F 19.4 °F 86% 29.47 in 7.0 mi SE 11.5 mph 19.6 mph 0.01 in Snow Light Snow
7:56 AM 23.0 °F 11.1 °F 21.2 °F 93% 29.45 in 7.0 mi SE 12.7 mph 18.4 mph N/A   Overcast
8:16 AM 23.0 °F 14.7 °F 21.2 °F 93% 29.44 in 7.0 mi SE 6.9 mph 16.1 mph N/A   Overcast
8:35 AM 24.8 °F 16.9 °F 21.2 °F 86% 29.43 in 7.0 mi SE 6.9 mph 17.3 mph N/A   Overcast
8:55 AM 24.8 °F 14.0 °F 21.2 °F 86% 29.43 in 3.0 mi SE 11.5 mph 20.7 mph N/A   Overcast
9:16 AM 24.8 °F 12.9 °F 23.0 °F 93% 29.42 in 3.0 mi SSE 13.8 mph 24.2 mph N/A   Overcast
9:36 AM 24.8 °F 11.9 °F 24.8 °F 100% 29.42 in 2.0 mi SSE 16.1 mph 21.9 mph N/A   Overcast
9:55 AM 26.6 °F 16.8 °F 24.8 °F 93% 29.42 in 2.5 mi South 10.4 mph 21.9 mph N/A   Overcast
10:15 AM 24.8 °F 14.6 °F 24.8 °F 100% 29.43 in 4.0 mi South 10.4 mph 16.1 mph N/A   Overcast
10:36 AM 23.0 °F 9.6 °F 19.4 °F 86% 29.44 in 4.0 mi South 16.1 mph 24.2 mph N/A   Overcast
10:55 AM 21.2 °F 9.5 °F 19.4 °F 93% 29.45 in 3.0 mi South 11.5 mph 18.4 mph N/A   Overcast
11:15 AM 19.4 °F 8.6 °F 17.6 °F 93% 29.45 in 5.0 mi South 9.2 mph 24.2 mph N/A   Overcast
11:36 AM 19.4 °F 7.2 °F 17.6 °F 93% 29.46 in 7.0 mi South 11.5 mph 20.7 mph N/A   Overcast
11:56 AM 19.4 °F 7.2 °F 17.6 °F 93% 29.46 in 4.0 mi South 11.5 mph 17.3 mph N/A   Overcast
12:16 PM 19.4 °F 7.2 °F 15.8 °F 86% 29.47 in 10.0 mi SSW 11.5 mph 17.3 mph N/A   Overcast
12:36 PM 19.4 °F 9.5 °F 15.8 °F 86% 29.47 in 7.0 mi SSW 8.1 mph 17.3 mph N/A   Overcast
12:56 PM 19.4 °F 7.9 °F 15.8 °F 86% 29.47 in 7.0 mi SSW 10.4 mph 16.1 mph N/A   Overcast
1:16 PM 19.4 °F 8.6 °F 15.8 °F 86% 29.47 in 7.0 mi SSW 9.2 mph - N/A Snow Light Snow
1:36 PM 19.4 °F 6.0 °F 15.8 °F 86% 29.47 in 7.0 mi SSW 13.8 mph 20.7 mph N/A Snow Light Snow
1:56 PM 17.6 °F 5.0 °F 14.0 °F 86% 29.47 in 7.0 mi SW 11.5 mph 18.4 mph N/A Snow Light Snow
2:16 PM 17.6 °F 6.4 °F 14.0 °F 86% 29.47 in 4.0 mi SW 9.2 mph 16.1 mph N/A Snow Light Snow
2:36 PM 19.4 °F 8.6 °F 14.0 °F 80% 29.47 in 3.0 mi SW 9.2 mph - N/A Snow Light Snow
2:56 PM 19.4 °F 6.6 °F 15.8 °F 86% 29.47 in 3.0 mi WSW 12.7 mph - N/A Snow Light Snow
3:16 PM 21.2 °F 10.1 °F 15.8 °F 80% 29.48 in 3.0 mi SW 10.4 mph 17.3 mph N/A Snow Light Snow
3:36 PM 21.2 °F 10.9 °F 17.6 °F 86% 29.49 in 2.0 mi West 9.2 mph - N/A Snow Light Snow
3:56 PM 21.2 °F 6.8 °F 15.8 °F 80% 29.50 in 1.8 mi West 17.3 mph 21.9 mph N/A Snow Light Snow
4:16 PM 21.2 °F 8.3 °F 15.8 °F 80% 29.50 in 2.0 mi WNW 13.8 mph 21.9 mph N/A Snow Light Snow
4:35 PM 21.2 °F 10.1 °F 15.8 °F 80% 29.52 in 2.5 mi WNW 10.4 mph 21.9 mph N/A Snow Light Snow
4:55 PM 21.2 °F 7.3 °F 15.8 °F 80% 29.53 in 4.0 mi West 16.1 mph 25.3 mph N/A Snow Light Snow
5:15 PM 21.2 °F 6.0 °F 14.0 °F 74% 29.54 in 2.0 mi West 19.6 mph 27.6 mph N/A Snow Light Snow
5:36 PM 19.4 °F 3.6 °F 12.2 °F 74% 29.56 in 2.5 mi WNW 19.6 mph 27.6 mph N/A Snow Light Snow
5:55 PM 19.4 °F 7.2 °F 12.2 °F 74% 29.57 in 2.5 mi WNW 11.5 mph 26.5 mph N/A Snow Light Snow
6:15 PM 17.6 °F 2.7 °F 10.4 °F 73% 29.58 in 3.0 mi WNW 16.1 mph 25.3 mph N/A Snow Light Snow
6:36 PM 17.6 °F 1.7 °F 10.4 °F 73% 29.59 in 2.5 mi WNW 18.4 mph 27.6 mph N/A Snow Light Snow
6:56 PM 15.8 °F -0.6 °F 10.4 °F 79% 29.60 in 2.5 mi West 18.4 mph 29.9 mph N/A Snow Light Snow
7:16 PM 15.8 °F -1.1 °F 8.6 °F 73% 29.62 in 5.0 mi WNW 19.6 mph 26.5 mph N/A Snow Light Snow
7:37 PM 12.2 °F -5.3 °F 6.8 °F 79% 29.63 in 7.0 mi WNW 18.4 mph 31.1 mph N/A Snow Light Snow
7:56 PM 12.2 °F -3.1 °F 6.8 °F 79% 29.64 in 10.0 mi West 13.8 mph 27.6 mph N/A   Mostly Cloudy
8:16 PM 10.4 °F -6.6 °F 5.0 °F 79% 29.66 in 10.0 mi WNW 16.1 mph 25.3 mph N/A   Scattered Clouds
8:36 PM 10.4 °F -7.2 °F 5.0 °F 79% 29.66 in 10.0 mi WNW 17.3 mph 26.5 mph N/A Snow Light Snow
8:56 PM 10.4 °F -5.4 °F 5.0 °F 79% 29.67 in 10.0 mi West 13.8 mph 25.3 mph N/A Snow Light Snow
9:16 PM 10.4 °F -5.4 °F 3.2 °F 73% 29.68 in 10.0 mi West 13.8 mph 19.6 mph N/A Snow Light Snow
9:36 PM 8.6 °F -7.0 °F 3.2 °F 79% 29.69 in 7.0 mi WNW 12.7 mph 26.5 mph N/A Snow Light Snow
9:56 PM 8.6 °F -10.0 °F 3.2 °F 79% 29.70 in 10.0 mi WNW 18.4 mph 26.5 mph N/A Snow Light Snow
10:16 PM 8.6 °F -8.9 °F 3.2 °F 79% 29.71 in 10.0 mi WNW 16.1 mph 27.6 mph N/A   Clear
10:36 PM 8.6 °F -7.0 °F 3.2 °F 79% 29.72 in 10.0 mi WNW 12.7 mph 21.9 mph N/A   Clear
10:56 PM 6.8 °F -10.0 °F 1.4 °F 79% 29.72 in 10.0 mi WNW 13.8 mph 21.9 mph N/A   Clear
11:16 PM 6.8 °F -9.3 °F 1.4 °F 79% 29.73 in 10.0 mi WNW 12.7 mph 19.6 mph N/A   Clear
11:36 PM 6.8 °F -11.3 °F 1.4 °F 79% 29.73 in 10.0 mi WNW 16.1 mph 24.2 mph N/A   Clear
11:56 PM 6.8 °F -10.7 °F 1.4 °F 79% 29.74 in 10.0 mi WNW 15.0 mph 24.2 mph N/A   Clear